ARG2440 LIPH-LIPR

Flight info

Callsign ARG2440
Flight time 0h 31m
Altitude 19000
Route INBUT N503 CHI L612 AMLON
Aircraft B737/M-SDE2E3FGHIRWXY/LB1

Departure

Time 2026-04-23 23:27
Airport Treviso Airport (LIPH)

Arrival

Time 2026-04-23 23:58
Airport Federico Fellini International Airport (LIPR)
Time Latitude Longitude Altitude Speed Heading
2026-04-23 23:10 45.65386 12.20429 61 ft 0 kts 338°
2026-04-23 23:21 45.65369 12.20437 54 ft 4 kts 345°
2026-04-23 23:21 45.65344 12.20449 60 ft 4 kts 333°
2026-04-23 23:22 45.65329 12.20449 54 ft 4 kts 32°
2026-04-23 23:22 45.65312 12.20422 53 ft 4 kts 70°
2026-04-23 23:22 45.65306 12.20392 59 ft 1 kts 69°
2026-04-23 23:22 45.65304 12.20387 58 ft 0 kts 69°
2026-04-23 23:24 45.65310 12.20411 53 ft 5 kts 69°
2026-04-23 23:25 45.65330 12.20484 58 ft 11 kts 68°
2026-04-23 23:25 45.65365 12.20591 58 ft 12 kts 71°
2026-04-23 23:25 45.65378 12.20694 58 ft 10 kts 102°
2026-04-23 23:25 45.65320 12.20751 58 ft 10 kts 158°
2026-04-23 23:26 45.65255 12.20781 61 ft 10 kts 185°
2026-04-23 23:26 45.65198 12.20686 58 ft 32 kts 244°
2026-04-23 23:26 45.65005 12.19984 61 ft 118 kts 249°
2026-04-23 23:26 45.64639 12.18594 263 ft 169 kts 250°
2026-04-23 23:27 45.64242 12.16998 1263 ft 166 kts 251°
2026-04-23 23:27 45.63899 12.15519 2470 ft 149 kts 253°
2026-04-23 23:27 45.63482 12.14063 3068 ft 175 kts 245°
2026-04-23 23:27 45.62897 12.12330 3427 ft 211 kts 244°
2026-04-23 23:28 45.62206 12.10288 3720 ft 247 kts 244°
2026-04-23 23:28 45.61443 12.08009 4445 ft 262 kts 245°
2026-04-23 23:28 45.60654 12.05631 5524 ft 265 kts 245°
2026-04-23 23:28 45.59863 12.03231 6587 ft 269 kts 245°
2026-04-23 23:29 45.59061 12.00783 7617 ft 274 kts 245°
2026-04-23 23:29 45.58257 11.98323 8605 ft 278 kts 245°
2026-04-23 23:29 45.57434 11.95802 9572 ft 282 kts 245°
2026-04-23 23:29 45.56598 11.93237 10463 ft 290 kts 245°
2026-04-23 23:30 45.55706 11.90506 10779 ft 318 kts 245°
2026-04-23 23:30 45.54730 11.87523 11003 ft 345 kts 245°
2026-04-23 23:30 45.53541 11.84445 11507 ft 361 kts 231°
2026-04-23 23:30 45.51554 11.82257 12313 ft 366 kts 204°
2026-04-23 23:31 45.49071 11.81507 13215 ft 370 kts 179°
2026-04-23 23:31 45.46562 11.82332 14051 ft 375 kts 154°
2026-04-23 23:31 45.44497 11.84604 14881 ft 380 kts 130°
2026-04-23 23:31 45.42946 11.87632 15736 ft 384 kts 126°
2026-04-23 23:32 45.41261 11.90619 16498 ft 390 kts 133°
2026-04-23 23:32 45.39315 11.93345 17263 ft 394 kts 137°
2026-04-23 23:32 45.37255 11.95942 18002 ft 398 kts 140°
2026-04-23 23:32 45.35086 11.98435 18683 ft 404 kts 142°
2026-04-23 23:33 45.32847 12.00863 18962 ft 404 kts 143°
2026-04-23 23:33 45.30607 12.03236 18994 ft 407 kts 143°
2026-04-23 23:33 45.28334 12.05638 18995 ft 405 kts 143°
2026-04-23 23:33 45.26068 12.08036 19004 ft 405 kts 143°
2026-04-23 23:34 45.23800 12.10440 19007 ft 405 kts 143°
2026-04-23 23:34 45.21535 12.12842 19005 ft 406 kts 143°
2026-04-23 23:34 45.19276 12.15235 19004 ft 406 kts 143°
2026-04-23 23:34 45.17041 12.17601 19002 ft 406 kts 143°
2026-04-23 23:35 45.14776 12.19997 19001 ft 406 kts 143°
2026-04-23 23:35 45.12510 12.22392 19002 ft 406 kts 143°
2026-04-23 23:35 45.10245 12.24783 19001 ft 406 kts 143°
2026-04-23 23:35 45.07982 12.27168 19002 ft 406 kts 143°
2026-04-23 23:36 45.05628 12.29460 19015 ft 418 kts 148°
2026-04-23 23:36 45.03079 12.31611 19016 ft 433 kts 150°
2026-04-23 23:36 45.00436 12.33744 19008 ft 438 kts 150°
2026-04-23 23:36 44.97773 12.35879 19000 ft 439 kts 150°
2026-04-23 23:37 44.95157 12.37992 18994 ft 439 kts 150°
2026-04-23 23:37 44.92510 12.40151 18996 ft 439 kts 150°
2026-04-23 23:37 44.89863 12.42325 18996 ft 439 kts 150°
2026-04-23 23:37 44.87229 12.44494 18999 ft 439 kts 150°
2026-04-23 23:38 44.84593 12.46664 19001 ft 439 kts 150°
2026-04-23 23:38 44.81952 12.48833 19002 ft 439 kts 150°
2026-04-23 23:38 44.79304 12.51004 19001 ft 439 kts 150°
2026-04-23 23:38 44.76662 12.53160 19001 ft 439 kts 150°
2026-04-23 23:39 44.74018 12.55312 19001 ft 439 kts 150°
2026-04-23 23:39 44.71405 12.57435 19001 ft 439 kts 150°
2026-04-23 23:39 44.68754 12.59588 19001 ft 439 kts 150°
2026-04-23 23:39 44.66123 12.61723 18992 ft 430 kts 150°
2026-04-23 23:40 44.63550 12.63811 18995 ft 424 kts 150°
2026-04-23 23:40 44.61002 12.65876 19005 ft 424 kts 150°
2026-04-23 23:40 44.58448 12.67945 19009 ft 425 kts 150°
2026-04-23 23:40 44.55872 12.70028 18534 ft 428 kts 150°
2026-04-23 23:41 44.53334 12.72076 17810 ft 424 kts 150°
2026-04-23 23:41 44.50798 12.74111 17001 ft 416 kts 150°
2026-04-23 23:41 44.48299 12.76109 16143 ft 410 kts 150°
2026-04-23 23:41 44.45834 12.78078 15285 ft 404 kts 150°
2026-04-23 23:42 44.43406 12.80018 14434 ft 398 kts 150°
2026-04-23 23:42 44.41037 12.81910 13601 ft 393 kts 150°
2026-04-23 23:42 44.38674 12.83795 12764 ft 388 kts 150°
2026-04-23 23:42 44.36333 12.85661 11947 ft 384 kts 150°
2026-04-23 23:43 44.33943 12.87246 11115 ft 379 kts 163°
2026-04-23 23:43 44.31369 12.87665 10752 ft 362 kts 180°
2026-04-23 23:43 44.28949 12.87632 10567 ft 344 kts 181°
2026-04-23 23:43 44.26615 12.87577 10412 ft 326 kts 181°
2026-04-23 23:44 44.24395 12.87528 10272 ft 311 kts 181°
2026-04-23 23:44 44.22283 12.87489 10135 ft 297 kts 181°
2026-04-23 23:44 44.20262 12.87459 10018 ft 284 kts 181°
2026-04-23 23:44 44.18315 12.87433 9734 ft 278 kts 181°
2026-04-23 23:45 44.16388 12.87409 9399 ft 275 kts 181°
2026-04-23 23:45 44.14496 12.87388 9044 ft 274 kts 181°
2026-04-23 23:45 44.12597 12.87366 8683 ft 272 kts 181°
2026-04-23 23:45 44.10706 12.87346 8321 ft 271 kts 181°
2026-04-23 23:46 44.08823 12.87325 7966 ft 269 kts 181°
2026-04-23 23:46 44.06954 12.87303 7595 ft 268 kts 181°
2026-04-23 23:46 44.05108 12.87280 7415 ft 259 kts 181°
2026-04-23 23:46 44.03334 12.87258 7276 ft 250 kts 181°
2026-04-23 23:47 44.01647 12.87238 7148 ft 241 kts 181°
2026-04-23 23:47 44.00029 12.87570 7020 ft 232 kts 155°
2026-04-23 23:47 43.98774 12.88881 6838 ft 222 kts 132°
2026-04-23 23:47 43.97819 12.90512 6600 ft 213 kts 128°
2026-04-23 23:48 43.96937 12.92123 6347 ft 206 kts 127°
2026-04-23 23:48 43.96080 12.93682 6119 ft 198 kts 128°
2026-04-23 23:48 43.95271 12.95148 5920 ft 188 kts 128°
2026-04-23 23:48 43.94275 12.96200 5665 ft 177 kts 167°
2026-04-23 23:49 43.92133 12.95271 5506 ft 156 kts 219°
2026-04-23 23:49 43.91295 12.94373 5370 ft 149 kts 218°
2026-04-23 23:49 43.90464 12.93485 5257 ft 152 kts 218°
2026-04-23 23:50 43.89622 12.92584 5079 ft 153 kts 218°
2026-04-23 23:50 43.88804 12.91698 4912 ft 149 kts 223°
2026-04-23 23:50 43.88262 12.90516 4756 ft 143 kts 252°
2026-04-23 23:50 43.88075 12.89177 4584 ft 142 kts 272°
2026-04-23 23:51 43.88269 12.87864 4436 ft 139 kts 297°
2026-04-23 23:51 43.88639 12.86628 4271 ft 139 kts 294°
2026-04-23 23:51 43.88988 12.85381 4047 ft 140 kts 294°
2026-04-23 23:51 43.89428 12.84218 3871 ft 134 kts 304°
2026-04-23 23:52 43.89929 12.83149 3703 ft 133 kts 307°
2026-04-23 23:52 43.90464 12.82098 3519 ft 133 kts 308°
2026-04-23 23:52 43.91013 12.81070 3349 ft 132 kts 309°
2026-04-23 23:52 43.91561 12.80060 3168 ft 131 kts 309°
2026-04-23 23:53 43.92112 12.79055 2988 ft 131 kts 309°
2026-04-23 23:53 43.92663 12.78057 2821 ft 130 kts 308°
2026-04-23 23:53 43.93216 12.77061 2650 ft 131 kts 308°
2026-04-23 23:53 43.93770 12.76059 2471 ft 131 kts 307°
2026-04-23 23:54 43.94322 12.75061 2308 ft 130 kts 307°
2026-04-23 23:54 43.94868 12.74074 2129 ft 131 kts 307°
2026-04-23 23:54 43.95421 12.73076 1957 ft 130 kts 307°
2026-04-23 23:54 43.95974 12.72081 1784 ft 130 kts 307°
2026-04-23 23:55 43.96528 12.71081 1617 ft 130 kts 306°
2026-04-23 23:55 43.97082 12.70082 1436 ft 130 kts 306°
2026-04-23 23:55 43.97635 12.69084 1263 ft 130 kts 306°
2026-04-23 23:55 43.98192 12.68082 1091 ft 131 kts 306°
2026-04-23 23:56 43.98740 12.67094 922 ft 131 kts 306°
2026-04-23 23:56 43.99295 12.66093 744 ft 130 kts 306°
2026-04-23 23:56 43.99848 12.65098 573 ft 130 kts 306°
2026-04-23 23:56 44.00396 12.64110 401 ft 129 kts 306°
2026-04-23 23:57 44.00945 12.63120 233 ft 129 kts 306°
2026-04-23 23:57 44.01493 12.62135 57 ft 129 kts 306°
2026-04-23 23:57 44.01985 12.61224 29 ft 100 kts 306°
2026-04-23 23:57 44.02296 12.60611 31 ft 57 kts 304°
2026-04-23 23:58 44.02436 12.60328 30 ft 14 kts 304°
2026-04-23 23:58 44.02445 12.60310 30 ft 0 kts 304°
2026-04-23 23:58 44.02477 12.60270 30 ft 15 kts 318°
2026-04-23 23:58 44.02552 12.60176 30 ft 14 kts 317°
2026-04-23 23:59 44.02624 12.60083 30 ft 14 kts 317°
2026-04-23 23:59 44.02704 12.60008 31 ft 14 kts 340°
2026-04-23 23:59 44.02798 12.60060 30 ft 16 kts 38°
2026-04-23 23:59 44.02818 12.60197 31 ft 17 kts 123°
2026-04-24 00:00 44.02744 12.60333 31 ft 19 kts 127°
2026-04-24 00:00 44.02661 12.60483 31 ft 20 kts 128°
2026-04-24 00:00 44.02571 12.60642 30 ft 21 kts 128°
2026-04-24 00:00 44.02482 12.60797 31 ft 20 kts 128°
2026-04-24 00:01 44.02397 12.60949 31 ft 20 kts 128°
2026-04-24 00:01 44.02314 12.61096 30 ft 19 kts 128°
2026-04-24 00:01 44.02231 12.61247 29 ft 20 kts 128°
2026-04-24 00:01 44.02210 12.61415 28 ft 19 kts 55°
2026-04-24 00:02 44.02296 12.61543 29 ft 15 kts 74°
2026-04-24 00:02 44.02248 12.61667 29 ft 16 kts 128°
2026-04-24 00:02 44.02188 12.61782 31 ft 8 kts 110°
2026-04-24 00:02 44.02211 12.61839 29 ft 4 kts 39°
2026-04-24 00:03 44.02215 12.61843 31 ft 0 kts 38°